Dewpoint
-10 -10 -10 -10 -11 -12 -12 -12 -13 -13 -14 -14 -15 -15 -15 -15 -16 -17 -19 -20 -21 -20 -20 -20 -19 -19 -20 -22 -23 -23 -22 -20 -20 -20 -21 -21 -22 -22 -22 -22 -21 -21
-9 -9 -10 -10 -10 -11 -12 -12 -12 -12 -13 -14 -15 -16 -16 -16 -16 -16 -18 -19 -20 -21 -20 -20 -20 -19 -20 -21 -22 -22 -22 -20 -19 -19 -20 -20 -21 -21 -21 -21 -21 -21
-9 -9 -9 -10 -10 -10 -11 -11 -12 -12 -12 -13 -15 -15 -16 -16 -16 -16 -17 -18 -19 -20 -20 -20 -20 -19 -20 -20 -21 -21 -21 -20 -19 -19 -19 -19 -19 -20 -21 -21 -21 -20
-9 -9 -9 -9 -9 -10 -11 -11 -11 -11 -12 -12 -14 -15 -15 -16 -16 -17 -17 -18 -18 -18 -19 -20 -20 -19 -19 -20 -20 -21 -20 -20 -19 -18 -18 -18 -18 -19 -19 -20 -20 -20
-9 -9 -9 -9 -9 -10 -10 -11 -11 -11 -11 -12 -13 -14 -15 -15 -16 -17 -17 -17 -17 -18 -19 -19 -19 -19 -19 -20 -20 -20 -19 -19 -18 -18 -18 -17 -18 -18 -19 -19 -19 -19
-9 -9 -9 -9 -10 -10 -10 -11 -11 -11 -11 -12 -12 -13 -15 -16 -16 -17 -17 -17 -17 -17 -18 -19 -19 -19 -19 -19 -19 -19 -19 -19 -18 -18 -17 -17 -17 -18 -18 -18 -18 -19
-9 -9 -9 -9 -10 -10 -11 -11 -11 -11 -11 -12 -12 -13 -15 -15 -16 -16 -17 -17 -17 -17 -18 -19 -19 -19 -19 -19 -19 -19 -19 -19 -18 -18 -17 -17 -17 -17 -18 -18 -18 -18
-9 -10 -10 -10 -11 -12 -11 -11 -11 -11 -11 -11 -12 -13 -14 -14 -15 -16 -16 -17 -17 -17 -18 -19 -19 -19 -19 -18 -18 -18 -18 -18 -18 -18 -17 -17 -17 -17 -18 -18 -18 -18
-12 -11 -11 -12 -12 -12 -12 -12 -11 -11 -11 -11 -11 -11 -12 -13 -14 -15 -16 -16 -17 -17 -17 -18 -18 -18 -18 -18 -18 -18 -18 -18 -18 -18 -17 -17 -17 -17 -17 -17 -17 -17
-13 -13 -13 -13 -12 -12 -11 -11 -10 -10 -10 -10 -10 -10 -11 -12 -14 -14 -15 -16 -16 -17 -17 -17 -18 -18 -18 -18 -18 -18 -18 -18 -18 -18 -17 -17 -17 -17 -17 -17 -17 -17
-13 -13 -13 -12 -12 -12 -11 -9 -9 -9 -9 -9 -9 -9 -11 -12 -13 -14 -14 -15 -16 -16 -16 -17 -17 -18 -18 -18 -17 -17 -18 -18 -18 -17 -17 -17 -17 -17 -17 -17 -17 -17
-15 -15 -13 -12 -12 -11 -10 -9 -9 -9 -9 -9 -9 -10 -11 -12 -12 -13 -14 -14 -15 -16 -16 -16 -17 -17 -17 -17 -17 -17 -17 -18 -18 -17 -17 -17 -17 -17 -17 -17 -17 -17
-21 -18 -13 -11 -11 -11 -11 -11 -11 -11 -10 -10 -10 -10 -11 -11 -12 -13 -14 -14 -15 -16 -16 -16 -16 -17 -17 -17 -17 -17 -17 -17 -17 -17 -17 -17 -17 -17 -17 -17 -17 -17
-22 -17 -13 -12 -12 -12 -12 -12 -12 -12 -12 -12 -12 -11 -11 -12 -12 -13 -13 -14 -15 -16 -16 -16 -16 -16 -17 -17 -17 -17 -17 -17 -17 -17 -17 -17 -17 -17 -17 -17 -17 -17
-18 -15 -14 -14 -14 -13 -13 -13 -13 -14 -14 -14 -14 -13 -13 -13 -13 -13 -14 -14 -15 -16 -16 -16 -16 -16 -17 -17 -16 -16 -17 -17 -17 -17 -17 -17 -17 -17 -17 -17 -17 -17
-16 -15 -15 -15 -15 -16 -16 -16 -17 -17 -17 -18 -17 -17 -17 -16 -14 -14 -14 -14 -15 -16 -16 -16 -16 -16 -16 -17 -16 -16 -17 -17 -17 -17 -17 -17 -17 -17 -17 -17 -17 -17
-16 -17 -18 -18 -19 -20 -20 -21 -22 -22 -23 -23 -23 -23 -23 -21 -18 -15 -15 -15 -15 -16 -16 -16 -16 -16 -16 -16 -16 -16 -16 -17 -17 -17 -17 -17 -17 -17 -17 -17 -17 -17
-19 -21 -22 -23 -24 -25 -25 -25 -24 -24 -24 -24 -24 -23 -22 -21 -19 -18 -17 -16 -15 -16 -16 -16 -16 -16 -16 -16 -17 -17 -16 -16 -16 -17 -17 -17 -17 -17 -17 -17 -17 -18
-22 -23 -24 -25 -26 -25 -25 -24 -23 -23 -22 -22 -21 -21 -20 -19 -18 -18 -17 -16 -16 -16 -16 -16 -16 -16 -16 -17 -17 -17 -17 -16 -16 -16 -17 -17 -17 -17 -18 -18 -18 -18
-22 -23 -25 -26 -26 -25 -24 -24 -23 -23 -22 -22 -22 -21 -20 -20 -19 -18 -18 -17 -17 -16 -16 -16 -16 -16 -17 -17 -17 -17 -16 -16 -16 -16 -16 -17 -17 -18 -18 -18 -18 -18
-23 -24 -25 -26 -26 -25 -24 -24 -24 -23 -23 -23 -23 -22 -21 -21 -20 -19 -18 -18 -17 -16 -16 -16 -16 -17 -17 -18 -18 -17 -15 -15 -16 -16 -16 -16 -17 -18 -18 -18 -18 -18
-24 -25 -26 -26 -25 -25 -25 -24 -24 -24 -24 -24 -23 -23 -22 -21 -20 -19 -18 -17 -17 -17 -17 -17 -17 -17 -17 -18 -18 -17 -16 -15 -16 -16 -16 -16 -17 -17 -18 -18 -18 -18
-25 -25 -25 -25 -25 -25 -25 -25 -25 -25 -25 -24 -24 -23 -22 -21 -20 -19 -18 -18 -17 -17 -17 -17 -17 -17 -18 -18 -18 -17 -16 -16 -16 -16 -16 -16 -16 -17 -17 -18 -18 -18
-25 -25 -25 -25 -25 -25 -25 -25 -25 -25 -25 -25 -24 -24 -23 -22 -21 -20 -19 -18 -18 -18 -18 -18 -17 -18 -18 -18 -18 -17 -16 -16 -17 -17 -17 -17 -17 -17 -17 -18 -18 -18
-25 -25 -25 -25 -26 -26 -26 -25 -25 -25 -25 -25 -24 -24 -23 -22 -21 -19 -18 -18 -18 -18 -18 -18 -18 -18 -18 -18 -18 -17 -16 -16 -17 -17 -17 -17 -17 -17 -18 -18 -18 -18
-26 -26 -26 -26 -26 -26 -26 -26 -26 -26 -25 -25 -24 -24 -23 -22 -21 -19 -19 -19 -19 -19 -18 -18 -18 -18 -18 -18 -18 -17 -16 -16 -17 -17 -17 -17 -18 -18 -18 -18 -18 -19
Wind_Speed
33 34 36 37 37 38 38 37 37 37 37 36 35 35 34 34 36 39 42 43 42 43 43 42 41 41 40 40 39 38 38 38 38 37 37 37 38 37 36 35 35 34
36 37 38 37 36 37 39 39 40 39 38 36 35 35 34 33 33 36 40 43 43 44 44 42 42 42 41 41 40 39 39 38 38 37 38 38 38 38 38 37 36 36
38 39 38 37 37 37 39 41 41 39 38 36 34 33 33 32 32 33 37 41 44 45 45 43 43 42 42 41 40 40 40 39 39 38 38 39 39 39 39 38 37 37
41 40 38 38 39 39 40 40 41 40 40 38 36 34 33 32 32 32 34 38 42 45 46 44 43 42 41 40 40 41 40 40 39 38 38 39 39 39 39 39 38 38
42 41 40 40 41 42 42 41 41 41 42 41 39 37 36 34 32 32 33 36 40 43 45 44 43 41 40 40 40 40 41 40 39 38 39 39 39 39 39 39 39 38
42 41 42 42 42 42 42 42 41 41 42 41 39 37 36 35 34 32 33 36 39 41 43 43 42 41 40 40 40 41 41 41 40 39 39 40 40 39 39 39 39 39
42 43 44 44 44 43 43 42 42 41 41 40 39 37 36 34 34 34 34 36 38 40 42 43 42 42 41 40 41 42 42 42 41 40 40 40 40 40 39 39 40 39
43 44 45 44 44 44 44 43 42 41 40 40 40 39 37 34 32 32 34 36 37 39 41 43 43 42 42 41 42 43 43 42 42 41 41 40 40 40 40 39 40 40
43 44 44 45 45 45 45 44 44 44 43 43 43 42 40 36 32 31 34 36 37 38 40 42 43 43 42 42 43 43 43 43 42 41 41 41 40 41 40 39 39 40
43 43 43 43 44 44 44 44 44 43 42 41 42 41 40 38 34 33 35 36 36 37 39 42 43 43 43 43 43 44 44 44 43 42 41 41 40 41 40 39 40 40
42 43 43 43 43 43 43 42 41 40 40 41 41 40 40 39 37 37 37 37 37 37 38 41 42 43 44 44 43 44 44 44 44 42 41 40 40 40 40 40 40 40
43 44 43 42 42 43 43 43 43 42 42 41 39 38 39 39 40 40 40 39 39 38 38 39 42 43 44 44 44 43 44 44 44 43 42 41 40 39 39 40 40 41
46 44 42 42 43 43 42 41 39 38 38 38 38 39 42 43 43 42 40 39 40 40 38 38 40 42 43 44 44 44 43 44 43 42 42 41 41 40 40 40 40 40
45 41 42 43 42 40 38 37 36 36 38 39 38 38 40 41 40 39 38 39 40 41 40 38 39 42 43 44 44 43 43 43 43 42 41 41 41 41 40 40 40 40
39 38 40 41 41 43 44 46 46 46 47 47 43 40 40 40 40 41 41 40 40 42 41 39 39 41 43 44 44 44 43 43 43 42 41 40 40 41 41 41 41 41
36 39 41 43 46 49 52 54 55 55 56 55 53 51 50 49 48 47 45 43 43 45 43 41 40 41 43 44 43 44 44 44 43 42 41 40 41 41 41 41 42 42
40 45 49 52 54 57 59 60 61 61 61 61 59 58 56 55 53 51 49 48 48 48 46 43 42 42 42 41 40 41 42 43 44 43 41 41 41 41 41 41 41 40
49 53 56 58 59 60 59 59 58 58 58 58 56 54 53 52 52 52 52 51 50 49 47 45 43 43 42 40 38 38 38 40 42 42 41 41 41 41 41 40 39 38
54 56 59 61 61 58 56 54 52 52 52 51 51 49 48 48 48 48 49 49 49 48 47 46 44 43 41 38 37 36 35 37 40 40 39 39 39 40 41 40 38 36
54 57 60 61 60 57 55 53 52 52 50 49 48 47 46 45 44 45 45 45 45 45 45 45 44 43 40 36 34 33 32 34 38 39 39 38 38 39 40 40 39 37
56 59 60 60 59 56 55 55 54 53 51 50 48 46 44 43 42 41 40 39 39 40 41 42 42 40 37 33 32 32 31 32 36 38 38 38 38 39 39 38 37 36
57 59 60 60 58 57 57 57 56 54 53 51 48 44 42 40 39 39 38 37 36 36 38 39 39 37 34 31 29 30 30 32 34 36 37 38 39 40 39 37 35 34
57 58 58 59 59 59 59 58 57 55 53 48 45 43 41 39 38 38 37 36 36 36 36 36 35 33 30 29 29 29 30 32 33 34 36 36 37 38 38 37 35 33
56 56 56 58 59 59 59 58 57 54 50 45 43 43 42 39 37 37 36 35 36 36 34 33 32 31 28 27 28 27 28 30 31 32 33 32 32 35 36 35 35 33
55 55 55 57 58 59 58 56 54 52 48 46 44 43 41 39 38 37 36 35 35 34 31 30 30 29 26 24 26 26 27 28 30 32 34 32 31 32 32 31 30 29
54 54 55 56 57 57 56 53 51 50 49 47 45 43 41 40 37 36 36 37 35 31 29 28 28 27 25 23 23 24 26 27 29 33 36 37 36 35 32 30 28 28
Wind_Direction
319 318 316 316 316 315 312 310 308 305 304 304 304 302 299 295 289 285 283 281 280 280 278 280 283 282 278 274 270 265 261 257 255 254 252 249 246 244 242 239 239 239
310 311 310 310 311 312 311 309 306 303 300 300 303 302 301 298 292 285 282 281 279 278 277 277 280 280 276 272 268 264 260 254 251 251 250 249 247 245 243 241 239 239
307 308 308 308 308 307 307 306 303 300 298 297 299 301 302 301 296 287 281 279 278 278 276 274 277 278 274 271 267 263 258 253 250 248 248 247 246 245 245 243 240 239
308 307 307 308 308 306 306 305 301 299 298 295 294 297 301 303 301 293 284 280 278 277 275 273 274 274 271 268 265 260 256 253 249 247 245 245 245 245 245 244 243 241
310 309 307 307 307 306 306 304 301 298 298 296 293 292 295 299 301 297 291 288 284 279 274 271 271 271 267 263 259 256 253 251 249 245 243 243 243 243 244 243 243 243
311 309 308 306 306 306 304 302 300 298 296 294 292 290 292 294 297 295 292 291 289 282 274 269 268 267 264 259 255 253 251 249 247 245 243 243 242 242 242 242 242 242
311 310 308 307 306 305 303 301 299 297 295 293 290 289 290 292 294 294 292 292 290 282 272 267 265 264 261 257 252 251 249 247 246 244 243 243 242 241 240 240 240 241
312 311 310 309 308 306 304 302 300 297 294 291 289 288 289 291 293 295 298 299 294 283 273 268 265 263 260 256 252 249 248 246 245 243 243 242 241 240 239 239 239 239
314 313 311 311 310 308 306 304 301 297 291 287 286 287 287 288 290 295 301 305 299 285 275 270 266 263 259 255 252 249 247 246 245 243 243 242 241 239 238 237 237 238
316 315 313 312 311 310 309 307 303 297 291 287 287 287 286 285 288 294 300 305 301 289 279 272 267 263 259 255 252 249 247 245 244 243 243 242 241 239 237 235 235 237
318 317 316 314 313 312 311 309 306 302 298 295 291 287 286 285 287 292 297 303 304 296 284 275 268 263 259 256 253 250 247 245 243 242 242 242 241 239 237 235 235 236
320 319 317 314 313 312 310 308 308 308 308 303 295 289 288 288 289 291 294 300 305 301 290 280 271 264 259 256 254 250 247 245 243 242 241 241 240 238 237 236 235 235
319 319 316 314 314 314 314 314 314 314 313 309 304 299 294 291 290 289 290 296 301 301 294 284 274 265 260 255 253 250 247 244 242 241 241 241 239 238 236 235 234 233
320 318 314 313 312 311 312 313 313 313 312 311 311 307 299 292 289 288 291 295 297 296 294 288 276 265 259 255 251 248 246 243 242 241 241 240 238 237 235 234 233 233
322 316 311 308 306 305 305 306 306 307 306 306 306 305 302 297 294 292 293 294 293 292 290 286 277 266 259 254 250 247 244 242 241 240 239 238 236 236 235 234 234 234
316 311 308 307 306 305 305 304 303 303 302 300 299 298 297 297 295 293 292 291 292 291 286 281 277 268 260 254 250 247 245 242 240 238 237 237 236 235 236 236 236 236
312 311 310 308 308 307 305 303 302 300 299 298 297 295 294 293 291 289 288 288 288 287 282 277 274 269 261 252 247 246 246 242 239 237 237 236 235 235 236 237 238 237
314 313 313 313 313 312 311 309 308 306 304 303 302 299 296 292 289 286 285 285 284 283 279 275 272 269 262 255 250 248 246 241 239 239 238 237 236 235 236 236 236 236
317 317 318 319 320 319 318 317 315 312 309 307 306 304 300 296 293 289 285 283 282 280 278 275 271 267 262 258 255 251 245 240 239 241 240 239 238 236 235 234 234 234
320 320 321 322 323 323 321 319 317 315 313 311 309 306 303 299 296 293 289 286 283 280 278 275 270 265 261 258 253 247 242 239 238 241 242 242 241 238 235 235 235 235
321 321 322 324 325 324 322 320 319 317 315 314 311 308 306 303 301 299 297 293 287 282 280 276 271 265 261 258 250 242 238 237 238 241 242 242 242 241 239 240 240 239
323 323 324 326 326 324 323 321 320 318 316 315 313 309 308 306 304 303 301 296 290 286 284 279 271 265 262 257 248 239 234 236 239 241 242 241 242 242 241 242 244 244
323 324 325 326 325 324 323 321 319 318 317 316 313 310 308 307 304 303 301 297 292 290 287 281 271 265 262 255 245 237 234 235 238 241 241 241 242 243 242 242 244 245
324 324 325 324 324 322 321 320 319 319 317 316 313 310 309 308 306 305 301 297 294 292 288 281 272 267 264 254 243 235 232 235 237 237 237 236 238 242 242 242 244 246
325 324 324 323 322 321 320 320 320 319 317 317 316 313 311 310 309 307 302 298 298 294 287 278 272 270 267 255 242 233 231 235 236 231 229 230 232 237 240 240 240 242
325 324 323 323 322 321 321 320 320 320 319 319 318 315 313 312 310 306 303 301 299 292 283 276 271 270 269 259 244 233 228 232 235 230 228 230 231 231 232 233 233 235
Height
1464 1462 1459 1456 1453 1449 1446 1443 1441 1439 1437 1435 1433 1431 1429 1427 1425 1422 1419 1417 1415 1413 1413 1413 1412 1411 1411 1410 1409 1408 1407 1406 1405 1405 1406 1406 1406 1405 1405 1405 1406 1407
1461 1458 1456 1453 1449 1446 1443 1440 1437 1434 1433 1431 1429 1427 1425 1423 1422 1420 1417 1414 1412 1410 1409 1408 1408 1407 1407 1406 1405 1403 1402 1402 1402 1401 1401 1401 1401 1401 1401 1402 1402 1403
1457 1454 1452 1449 1446 1443 1440 1437 1433 1430 1428 1426 1425 1423 1421 1419 1417 1415 1413 1411 1408 1406 1404 1404 1403 1402 1402 1401 1400 1399 1398 1397 1397 1398 1397 1397 1397 1397 1397 1398 1398 1399
1452 1449 1447 1444 1442 1439 1436 1433 1429 1426 1423 1421 1419 1418 1417 1415 1413 1411 1409 1407 1405 1402 1400 1399 1398 1397 1397 1396 1396 1394 1393 1393 1393 1394 1394 1393 1393 1393 1393 1394 1394 1394
1448 1445 1443 1440 1437 1435 1432 1429 1425 1422 1419 1416 1414 1413 1412 1410 1409 1407 1405 1403 1401 1398 1396 1394 1393 1392 1392 1391 1391 1390 1389 1388 1388 1389 1389 1388 1389 1389 1389 1389 1389 1390
1445 1442 1439 1436 1433 1430 1427 1424 1421 1418 1414 1411 1409 1407 1406 1405 1404 1402 1401 1399 1397 1394 1392 1390 1389 1387 1387 1386 1386 1384 1384 1384 1383 1384 1384 1383 1384 1385 1385 1385 1385 1385
1441 1438 1435 1432 1429 1426 1422 1419 1416 1413 1410 1406 1403 1401 1400 1399 1398 1397 1395 1394 1392 1389 1388 1386 1384 1383 1382 1381 1380 1379 1379 1379 1379 1379 1378 1378 1379 1380 1380 1381 1381 1381
1438 1434 1431 1428 1424 1421 1418 1415 1411 1408 1405 1401 1398 1395 1394 1393 1392 1391 1390 1388 1386 1384 1383 1381 1380 1378 1377 1376 1374 1373 1373 1373 1373 1374 1373 1374 1374 1374 1375 1376 1377 1377
1433 1430 1427 1423 1420 1417 1413 1410 1407 1404 1400 1396 1392 1389 1387 1385 1384 1384 1384 1383 1381 1379 1377 1376 1374 1373 1372 1371 1369 1368 1368 1368 1368 1368 1368 1369 1369 1369 1370 1371 1372 1373
1429 1426 1422 1419 1416 1412 1409 1406 1403 1399 1395 1391 1388 1385 1382 1379 1377 1376 1376 1376 1375 1373 1371 1370 1368 1368 1367 1365 1364 1363 1362 1362 1363 1363 1363 1363 1364 1365 1366 1366 1367 1368
1425 1422 1419 1415 1412 1409 1405 1402 1398 1394 1391 1388 1384 1380 1377 1374 1372 1371 1370 1369 1369 1368 1366 1364 1363 1362 1361 1360 1359 1358 1357 1357 1357 1358 1358 1358 1359 1360 1361 1362 1362 1363
1421 1418 1415 1411 1408 1404 1400 1396 1393 1389 1386 1384 1380 1377 1373 1370 1367 1365 1364 1363 1363 1362 1360 1358 1357 1356 1355 1354 1353 1353 1352 1352 1352 1352 1353 1354 1354 1355 1356 1357 1358 1359
1417 1414 1411 1407 1403 1399 1395 1391 1388 1385 1382 1380 1377 1373 1369 1365 1362 1359 1358 1357 1356 1355 1354 1352 1351 1350 1349 1348 1348 1347 1347 1347 1347 1348 1348 1349 1350 1350 1351 1352 1353 1354
1412 1410 1407 1402 1398 1394 1390 1387 1383 1380 1378 1375 1373 1369 1365 1361 1358 1355 1352 1351 1350 1348 1347 1346 1344 1343 1342 1342 1342 1342 1342 1341 1342 1342 1343 1343 1345 1345 1346 1347 1348 1349
1409 1407 1402 1398 1394 1390 1386 1383 1379 1376 1372 1369 1367 1364 1360 1357 1354 1351 1347 1345 1343 1342 1341 1339 1338 1336 1335 1336 1336 1336 1336 1336 1336 1337 1337 1338 1339 1340 1341 1342 1343 1344
1407 1403 1399 1395 1391 1387 1382 1378 1374 1370 1366 1362 1359 1356 1353 1351 1349 1345 1342 1339 1336 1335 1334 1332 1330 1329 1328 1329 1330 1330 1330 1330 1331 1332 1332 1333 1334 1335 1336 1337 1338 1339
1404 1399 1395 1391 1386 1382 1377 1371 1367 1362 1358 1354 1351 1348 1345 1343 1341 1338 1335 1333 1330 1328 1326 1325 1323 1322 1322 1323 1324 1324 1324 1325 1325 1327 1328 1328 1329 1330 1331 1332 1333 1334
1400 1394 1388 1383 1378 1373 1368 1362 1358 1353 1349 1345 1341 1338 1336 1333 1331 1329 1327 1326 1324 1321 1319 1317 1316 1316 1316 1317 1318 1319 1320 1319 1320 1321 1323 1323 1324 1325 1326 1327 1329 1330
1394 1387 1381 1375 1369 1364 1358 1354 1349 1345 1341 1337 1333 1329 1327 1324 1322 1321 1319 1318 1316 1314 1312 1310 1309 1309 1310 1311 1312 1313 1315 1315 1315 1315 1317 1319 1320 1321 1322 1323 1324 1326
1388 1381 1375 1368 1362 1357 1352 1347 1343 1338 1334 1331 1327 1323 1320 1317 1315 1313 1311 1310 1309 1307 1305 1303 1302 1303 1304 1305 1306 1308 1310 1312 1311 1310 1312 1313 1315 1316 1318 1319 1320 1322
1382 1375 1368 1362 1356 1351 1346 1341 1337 1332 1328 1324 1321 1317 1314 1311 1309 1306 1304 1302 1302 1301 1299 1297 1296 1297 1298 1300 1301 1303 1305 1307 1307 1306 1307 1308 1310 1311 1313 1315 1316 1318
1376 1369 1362 1356 1350 1345 1340 1335 1331 1327 1323 1319 1314 1311 1309 1307 1304 1302 1299 1297 1296 1296 1294 1291 1290 1292 1293 1295 1296 1298 1301 1303 1303 1302 1303 1304 1306 1307 1309 1311 1312 1314
1371 1365 1357 1351 1345 1340 1335 1330 1326 1322 1318 1315 1311 1307 1304 1302 1300 1297 1295 1293 1292 1290 1288 1286 1286 1287 1289 1290 1292 1294 1296 1298 1298 1298 1298 1300 1302 1303 1305 1307 1308 1310
1367 1361 1355 1348 1342 1336 1331 1326 1321 1317 1314 1311 1308 1304 1300 1298 1295 1292 1290 1289 1287 1285 1284 1282 1282 1283 1285 1286 1288 1290 1292 1293 1294 1295 1295 1296 1298 1300 1301 1303 1304 1306
1364 1358 1352 1346 1339 1333 1327 1323 1318 1313 1310 1307 1304 1300 1297 1294 1291 1288 1286 1285 1283 1280 1279 1278 1278 1279 1280 1282 1284 1286 1288 1289 1290 1292 1293 1294 1295 1296 1297 1299 1301 1302
1361 1355 1349 1343 1336 1329 1324 1320 1315 1310 1306 1303 1300 1296 1293 1290 1287 1286 1283 1281 1278 1276 1275 1275 1275 1275 1277 1278 1280 1282 1284 1285 1286 1287 1289 1291 1292 1293 1295 1296 1297 1299